Home   Weather   Wailuku   Past weeks

Flag for USA Past Weather in Wailuku, Hawaii, USA — Yesterday and Last 2 Weeks

Now
76 °F

Scattered clouds.


Feels Like: 77 °F
Forecast: 69 / 85 °F
Wind: 10 mph from Northeast

Location: Kahului Airport

Current Time: Apr 25, 2017 at 8:40:59 am

Latest Report: Apr 25, 2017 at 7:54 am


Visibility: 10 mi

Pressure: 30.11 "Hg

Humidity: 74%

Dew Point: 67 °F

Location of WailukuLocation

Past Weather in Wailuku — Graph

°F

Wailuku Temperature Yesterday

Maximum temperature yesterday: 88 °F (at 12:54 pm)
Minimum temperature yesterday: 68 °F (at 1:54 am)
Average temperature yesterday: 77 °F

High & Low Weather Summary for the Past Weeks

 TemperatureHumidityPressure
High88 °F (Apr 21, 1:54 pm)100% (Apr 20, 11:01 pm)30.16 "Hg (Apr 20, 11:01 pm)
Low62 °F (Apr 16, 5:54 am)42% (Apr 24, 12:54 pm)29.92 "Hg (Apr 11, 3:54 pm)
Average76 °F72%30.03 "Hg
* Reported Apr 10 6:54 am — Apr 25 6:54 am, Wailuku, Weather by CustomWeather, © 2017

Note: Actual official high and low records may vary slightly from our data, if they occured in-between our weather recording intervals... More about our weather records

Advertising

Wailuku Weather History for the Previous 24 Hours

Scroll right to see more
 ConditionsComfort  
Time TempWeatherWind HumidityBarometerVisibility
6:54 am
Tue, Apr 25
75 °FPassing clouds.16 mph74%30.09 "Hg10 mi
5:54 am73 °FPassing clouds.12 mph74%30.08 "Hg10 mi
4:54 am73 °FClear.10 mph76%30.07 "Hg10 mi
3:54 am73 °FClear.14 mph79%30.06 "Hg10 mi
2:54 am73 °FClear.12 mph79%30.07 "Hg10 mi
1:54 am73 °FClear.9 mph79%30.09 "Hg10 mi
12:54 am74 °FClear.10 mph76%30.10 "Hg10 mi
11:54 pm
Mon, Apr 24
72 °FClear.13 mph73%30.11 "Hg10 mi
10:54 pm74 °FClear.6 mph62%30.11 "Hg10 mi
9:54 pm74 °FClear.9 mph74%30.10 "Hg10 mi
8:54 pm74 °FClear.12 mph74%30.09 "Hg10 mi
7:54 pm75 °FPassing clouds.13 mph71%30.07 "Hg10 mi
6:54 pm77 °FPassing clouds.10 mph71%30.05 "Hg10 mi
5:54 pm81 °FPassing clouds.17 mph58%30.02 "Hg10 mi
4:54 pm83 °FScattered clouds.18 mph57%30.01 "Hg10 mi
3:54 pm85 °FScattered clouds.21 mph48%30.01 "Hg10 mi
2:54 pm85 °FScattered clouds.20 mph51%30.02 "Hg10 mi
1:54 pm86 °FScattered clouds.21 mph45%30.05 "Hg10 mi
12:54 pm88 °FScattered clouds.22 mph42%30.07 "Hg10 mi
11:54 am84 °FScattered clouds.22 mph55%30.09 "Hg10 mi
10:54 am83 °FPassing clouds.17 mph53%30.11 "Hg10 mi
9:54 am82 °FPassing clouds.14 mph51%30.12 "Hg10 mi
8:54 am79 °FSunny.14 mph58%30.12 "Hg10 mi
Weather by CustomWeather, © 2017

See weather overviewHow to use our weather pages